Location: Ahstedt
(52.2048°N, 10.1060°E)
Time: 23:07:58
(UTC+00:00)

Cosmos 1763 Rocket - Pass Details

Date: 18 January 2026
Orbit: 729 x 773 km, 74.0° (Epoch: 7 February)

Event Time Altitude Azimuth Distance (km) Brightness Sun altitude
Exits shadow 06:10:47 10° 316° (NW) 2,221 5.3 -10.1°
Maximum altitude 06:14:58 28° 259° (W) 1,364 4.4 -9.5°
Drops below altitude 10° 06:19:13 10° 202° (SSW) 2,239 5.9 -8.9°
Sets 06:21:50 0° 190° (S) 3,163 6.9 -8.5°
